When you browse on this site, cookies collect data to enhance your experience and personalize the content and advertising you see.
Visit our Privacy Policy to learn more. By continuing to use the site, you agree to this use of cookies and data.
  • en France
  • Liste des pays
  • À 7 jours
  • Température de l'eau
  • Carte météo
  • Widgets météo
  • user-avatar
    Se connecter

    Météo par heure à Vilcun

    Ce jour, 21 Octobre, Lundi

    Heure Température Précipitation Vent Pression Humidité
    00:00 +6°C° 0.3 mm 1 m/s 738 mmHg 96%
    01:00 +5°C° 0.3 mm 1 m/s 738 mmHg 97%
    02:00 +5°C° 0 mm 1 m/s 738 mmHg 97%
    03:00 +5°C° 0 mm 1 m/s 738 mmHg 96%
    04:00 +4°C° 0 mm 1 m/s 738 mmHg 96%
    05:00 +5°C° 0 mm 1 m/s 739 mmHg 94%
    06:00 +5°C° 0 mm 0 m/s 739 mmHg 91%
    07:00 +6°C° 0 mm 0 m/s 739 mmHg 89%
    08:00 +10°C° 0 mm 1 m/s 739 mmHg 76%
    09:00 +12°C° 0 mm 1 m/s 739 mmHg 62%
    10:00 +14°C° 0 mm 2 m/s 738 mmHg 49%
    11:00 +14°C° 0 mm 2 m/s 738 mmHg 48%
    12:00 +14°C° 0 mm 3 m/s 737 mmHg 47%
    13:00 +16°C° 0 mm 3 m/s 737 mmHg 46%
    14:00 +16°C° 0 mm 3 m/s 736 mmHg 47%
    15:00 +14°C° 0 mm 3 m/s 736 mmHg 49%
    16:00 +14°C° 0 mm 3 m/s 736 mmHg 50%
    17:00 +12°C° 0 mm 2 m/s 736 mmHg 62%
    18:00 +9°C° 0 mm 2 m/s 736 mmHg 74%
    19:00 +7°C° 0 mm 1 m/s 736 mmHg 86%
    20:00 +6°C° 0 mm 1 m/s 736 mmHg 88%
    21:00 +5°C° 0 mm 1 m/s 736 mmHg 90%
    22:00 +4°C° 0 mm 1 m/s 736 mmHg 92%
    23:00 +4°C° 0 mm 1 m/s 736 mmHg 92%

    Demain, 22 Octobre, Mardi

    Heure Température Précipitation Vent Pression Humidité
    00:00 +3°C° 0 mm 1 m/s 735 mmHg 92%
    01:00 +3°C° 0 mm 1 m/s 735 mmHg 92%
    02:00 +2°C° 0 mm 1 m/s 735 mmHg 92%
    03:00 +2°C° 0 mm 1 m/s 735 mmHg 92%
    04:00 +2°C° 0 mm 1 m/s 735 mmHg 92%
    05:00 +3°C° 0 mm 1 m/s 735 mmHg 85%
    06:00 +5°C° 0 mm 1 m/s 735 mmHg 79%
    07:00 +7°C° 0 mm 1 m/s 734 mmHg 73%
    08:00 +9°C° 0 mm 1 m/s 734 mmHg 64%
    09:00 +12°C° 0 mm 2 m/s 734 mmHg 56%
    10:00 +15°C° 0 mm 2 m/s 734 mmHg 47%
    11:00 +16°C° 0 mm 2 m/s 733 mmHg 45%
    12:00 +17°C° 0 mm 2 m/s 733 mmHg 44%
    13:00 +19°C° 0 mm 3 m/s 733 mmHg 42%
    14:00 +18°C° 0 mm 3 m/s 732 mmHg 45%
    15:00 +18°C° 0 mm 2 m/s 732 mmHg 48%
    16:00 +18°C° 0 mm 2 m/s 732 mmHg 51%
    17:00 +15°C° 0 mm 2 m/s 732 mmHg 65%
    18:00 +11°C° 0 mm 1 m/s 732 mmHg 79%
    19:00 +8°C° 0 mm 1 m/s 732 mmHg 93%
    20:00 +7°C° 0 mm 1 m/s 732 mmHg 93%
    21:00 +6°C° 0 mm 0 m/s 732 mmHg 94%
    22:00 +5°C° 0 mm 0 m/s 732 mmHg 94%
    23:00 +5°C° 0 mm 0 m/s 732 mmHg 94%

    Après-demain, 23 Octobre, Mercredi

    Heure Température Précipitation Vent Pression Humidité
    00:00 +4°C° 0 mm 0 m/s 732 mmHg 93%
    01:00 +4°C° 0 mm 0 m/s 731 mmHg 93%
    02:00 +4°C° 0 mm 0 m/s 731 mmHg 93%
    03:00 +4°C° 0 mm 0 m/s 731 mmHg 92%
    04:00 +4°C° 0 mm 0 m/s 731 mmHg 92%
    05:00 +6°C° 0 mm 0 m/s 731 mmHg 87%
    06:00 +8°C° 0 mm 0 m/s 732 mmHg 81%
    07:00 +9°C° 0 mm 0 m/s 732 mmHg 76%
    08:00 +12°C° 0 mm 0 m/s 731 mmHg 67%
    09:00 +16°C° 0 mm 1 m/s 731 mmHg 57%
    10:00 +20°C° 0 mm 1 m/s 731 mmHg 48%
    11:00 +21°C° 0 mm 1 m/s 731 mmHg 45%
    12:00 +22°C° 0 mm 1 m/s 730 mmHg 42%
    13:00 +23°C° 0 mm 2 m/s 730 mmHg 38%
    14:00 +21°C° 0 mm 2 m/s 730 mmHg 41%
    15:00 +21°C° 0 mm 2 m/s 730 mmHg 44%
    16:00 +20°C° 0 mm 3 m/s 730 mmHg 47%
    17:00 +16°C° 0 mm 2 m/s 730 mmHg 59%
    18:00 +13°C° 0 mm 1 m/s 730 mmHg 71%
    19:00 +9°C° 0 mm 1 m/s 730 mmHg 82%
    20:00 +7°C° 0 mm 0 m/s 731 mmHg 85%
    21:00 +6°C° 0 mm 0 m/s 731 mmHg 88%
    22:00 +5°C° 0 mm 0 m/s 731 mmHg 91%
    23:00 +5°C° 0 mm 0 m/s 731 mmHg 91%

    24 Octobre, Jeudi

    Heure Température Précipitation Vent Pression Humidité
    00:00 +5°C° 0 mm 0 m/s 730 mmHg 92%
    01:00 +4°C° 0 mm 0 m/s 730 mmHg 92%
    02:00 +5°C° 0 mm 0 m/s 730 mmHg 90%
    03:00 +5°C° 0 mm 0 m/s 731 mmHg 88%
    04:00 +6°C° 0 mm 1 m/s 731 mmHg 86%
    05:00 +6°C° 0 mm 0 m/s 731 mmHg 80%
    06:00 +8°C° 0 mm 0 m/s 731 mmHg 74%
    07:00 +10°C° 0 mm 0 m/s 731 mmHg 68%
    08:00 +13°C° 0 mm 1 m/s 732 mmHg 58%
    09:00 +15°C° 0 mm 1 m/s 732 mmHg 48%
    10:00 +17°C° 0 mm 2 m/s 732 mmHg 38%
    11:00 +18°C° 0 mm 2 m/s 732 mmHg 37%
    12:00 +18°C° 0 mm 2 m/s 732 mmHg 36%
    13:00 +19°C° 0 mm 3 m/s 732 mmHg 35%
    14:00 +18°C° 0 mm 3 m/s 732 mmHg 40%
    15:00 +17°C° 0 mm 3 m/s 732 mmHg 44%
    16:00 +17°C° 0 mm 3 m/s 732 mmHg 48%
    17:00 +14°C° 0.9 mm 2 m/s 732 mmHg 63%
    18:00 +12°C° 0.9 mm 2 m/s 732 mmHg 79%
    19:00 +9°C° 0.9 mm 1 m/s 733 mmHg 95%
    20:00 +9°C° 2.6 mm 1 m/s 733 mmHg 96%
    21:00 +9°C° 2.6 mm 1 m/s 733 mmHg 97%
    22:00 +9°C° 2.6 mm 1 m/s 733 mmHg 98%
    23:00 +9°C° 1.2 mm 1 m/s 733 mmHg 98%

    25 Octobre, Vendredi

    Heure Température Précipitation Vent Pression Humidité
    00:00 +9°C° 1.2 mm 1 m/s 733 mmHg 98%
    01:00 +8°C° 1.2 mm 0 m/s 733 mmHg 98%
    02:00 +8°C° 1.1 mm 0 m/s 733 mmHg 98%
    03:00 +9°C° 1.1 mm 1 m/s 733 mmHg 98%
    04:00 +9°C° 1.1 mm 1 m/s 733 mmHg 98%
    05:00 +9°C° 0.5 mm 1 m/s 733 mmHg 98%
    06:00 +9°C° 0.5 mm 1 m/s 733 mmHg 97%
    07:00 +10°C° 0.5 mm 1 m/s 733 mmHg 97%
    08:00 +11°C° 0.1 mm 1 m/s 733 mmHg 92%
    09:00 +12°C° 0.1 mm 1 m/s 733 mmHg 87%
    10:00 +14°C° 0.1 mm 1 m/s 733 mmHg 82%
    11:00 +15°C° 0.2 mm 1 m/s 732 mmHg 76%
    12:00 +16°C° 0.2 mm 1 m/s 732 mmHg 69%
    13:00 +17°C° 0.2 mm 2 m/s 732 mmHg 63%
    14:00 +17°C° 0.2 mm 2 m/s 732 mmHg 66%
    15:00 +16°C° 0.2 mm 2 m/s 731 mmHg 68%
    16:00 +16°C° 0.2 mm 2 m/s 731 mmHg 71%
    17:00 +14°C° 0 mm 2 m/s 731 mmHg 77%
    18:00 +12°C° 0 mm 2 m/s 731 mmHg 84%
    19:00 +10°C° 0 mm 1 m/s 731 mmHg 90%
    20:00 +9°C° 0 mm 1 m/s 731 mmHg 92%
    21:00 +7°C° 0 mm 0 m/s 731 mmHg 94%
    22:00 +6°C° 0 mm 0 m/s 731 mmHg 96%
    23:00 +5°C° 0 mm 0 m/s 731 mmHg 96%

    26 Octobre, Samedi

    Heure Température Précipitation Vent Pression Humidité
    00:00 +5°C° 0 mm 0 m/s 730 mmHg 96%
    01:00 +5°C° 0 mm 0 m/s 729 mmHg 96%
    02:00 +5°C° 0 mm 0 m/s 729 mmHg 94%
    03:00 +5°C° 0 mm 0 m/s 729 mmHg 93%
    04:00 +5°C° 0 mm 0 m/s 729 mmHg 91%
    05:00 +6°C° 0 mm 0 m/s 729 mmHg 88%
    06:00 +8°C° 0 mm 1 m/s 729 mmHg 86%
    07:00 +9°C° 0 mm 1 m/s 729 mmHg 83%
    08:00 +9°C° 0.1 mm 2 m/s 729 mmHg 78%
    09:00 +12°C° 0.1 mm 2 m/s 729 mmHg 72%
    10:00 +12°C° 0.1 mm 3 m/s 729 mmHg 66%
    11:00 +12°C° 0.2 mm 4 m/s 729 mmHg 70%
    12:00 +11°C° 0.2 mm 4 m/s 729 mmHg 74%
    13:00 +11°C° 0.2 mm 4 m/s 729 mmHg 77%
    14:00 +10°C° 1.1 mm 3 m/s 729 mmHg 83%
    15:00 +10°C° 1.1 mm 3 m/s 729 mmHg 89%
    16:00 +9°C° 1.1 mm 2 m/s 729 mmHg 95%
    17:00 +8°C° 0.3 mm 2 m/s 729 mmHg 95%
    18:00 +7°C° 0.3 mm 1 m/s 730 mmHg 95%
    19:00 +6°C° 0.3 mm 1 m/s 730 mmHg 96%
    20:00 +6°C° 0.3 mm 1 m/s 731 mmHg 96%
    21:00 +6°C° 0.3 mm 1 m/s 731 mmHg 97%
    22:00 +6°C° 0.3 mm 1 m/s 732 mmHg 97%
    23:00 +5°C° 0.1 mm 1 m/s 732 mmHg 97%

    27 Octobre, Dimanche

    Heure Température Précipitation Vent Pression Humidité
    00:00 +5°C° 0.1 mm 1 m/s 732 mmHg 97%
    01:00 +5°C° 0.1 mm 1 m/s 732 mmHg 98%
    02:00 +5°C° 0 mm 1 m/s 732 mmHg 98%
    03:00 +5°C° 0 mm 1 m/s 732 mmHg 98%
    04:00 +5°C° 0 mm 1 m/s 732 mmHg 98%
    05:00 +6°C° 0 mm 1 m/s 732 mmHg 96%
    06:00 +7°C° 0 mm 1 m/s 732 mmHg 94%
    07:00 +8°C° 0 mm 1 m/s 732 mmHg 93%
    08:00 +9°C° 0 mm 1 m/s 731 mmHg 79%
    09:00 +10°C° 0 mm 2 m/s 731 mmHg 66%
    10:00 +13°C° 0 mm 2 m/s 731 mmHg 52%
    11:00 +14°C° 0 mm 2 m/s 731 mmHg 50%
    12:00 +13°C° 0 mm 3 m/s 730 mmHg 47%
    13:00 +14°C° 0 mm 3 m/s 730 mmHg 45%
    14:00 +13°C° 0 mm 3 m/s 730 mmHg 48%
    15:00 +12°C° 0 mm 4 m/s 730 mmHg 52%
    16:00 +11°C° 0 mm 4 m/s 730 mmHg 56%
    17:00 +9°C° 0 mm 3 m/s 730 mmHg 64%
    18:00 +7°C° 0 mm 2 m/s 731 mmHg 72%
    19:00 +6°C° 0 mm 1 m/s 731 mmHg 80%
    20:00 +6°C° 0 mm 1 m/s 731 mmHg 79%
    21:00 +5°C° 0 mm 2 m/s 731 mmHg 78%
    22:00 +5°C° 0 mm 2 m/s 732 mmHg 77%
    23:00 +5°C° 0 mm 2 m/s 732 mmHg 77%
    Voir plus